Weather Roundup
Issued by NWS Chicago, IL

Home | Current Version | Previous Version | Graphics & Text | Print | Product List | Glossary On
Versions: 1 2 3 4 5 6 7 8 9 10 11 12 13 14 15 16 17 18 19 20 21 22 23 24 25 26 27 28 29 30 31 32 33 34 35 36 37 38 39 40 41 42 43 44 45 46 47 48 49 50
000
NZUS59 KLOT 212100
HRRLOT

CHICAGO AREA WEATHER ROUNDUP
NATIONAL WEATHER SERVICE CHICAGO/ROMEOVILLE IL
400 PM CDT THU AUG 21 2014

NOTE: "FAIR" INDICATES FEW OR NO CLOUDS BELOW 12,000 FEET WITH NO
SIGNIFICANT WEATHER AND/OR OBSTRUCTIONS TO VISIBILITY.

* THESE STATIONS ARE NOT UNDER NWS QUALITY CONTROL. THEY ALSO MAY NOT
  REPORT WEATHER SUCH AS PRECIPITATION OR FOG.

ILZ005-006-012>014-019>023-212200-
NORTHEAST ILLINOIS

CITY           SKY/WX    TMP DP  RH WIND       PRES   REMARKS
OHARE          CLOUDY    78  70  76 N8        29.95S HX  80
MIDWAY         TSTM      79  74  84 N9        29.94S HX  82
AURORA         RAIN      77  73  87 NW6       29.97R VSB 1
WAUKEGAN       LGT RAIN  72  71  97 SE6       29.94F FOG
DUPAGE AIRPORT RAIN      78  73  84 NW9       29.97R HX  81
WHEELING       RAIN      75  72  90 NE8       29.98R FOG
NORTHERLY IS     N/A     73  70  90 E9          N/A
$$

WIZ051-052-058>065-066-070>072-212200-
SOUTHEAST WISCONSIN

CITY           SKY/WX    TMP DP  RH WIND       PRES   REMARKS
MILWAUKEE      CLOUDY    73  70  90 S10       29.93F
KENOSHA*       CLOUDY    74  72  93 SE7       29.93F
RACINE*        LGT RAIN  75  71  87 S8        29.95F
WAUKESHA       CLOUDY    72  70  94 SE8       29.93F
$$

INZ001>003-010>013-019-020-212200-
NORTHWEST INDIANA

CITY           SKY/WX    TMP DP  RH WIND       PRES   REMARKS
GARY*          CLOUDY    82  73  74 VRB6      29.94F HX  88
MICHIGAN CITY* NOT AVBL
RENSSELAER*    NOT AVBL
VALPARAISO     PTSUNNY   80  72  76 SE5       29.96F HX  84
$$

LMZ740>746-212200-
SOUTHERN LAKE MICHIGAN

STATION/POSITION TIME  SKY/WX   TEMP WIND        PRES    VSBY
                                AIR  DIR/SP/G
                 (UTC)          (F)  (DEG/KT/KT) (MB)    (MI)
HARRISON CRIB    2000            73  100/ 11/ 11   N/A
BURNHAM HARBOR   2100            73   80/  6/  7   N/A
CALUMET HARBOR   2000            74   40/  7/  9 1012.9F
BURNS HARBOR     2100            80  180/  2/  6   N/A
MICHIGAN CITY    2000            77  100/  4/  6   N/A
$$

ABBREVIATIONS USED IN REMARKS
   TC - TEMPERATURE IN CELSIUS
  WCI - WIND CHILL INDEX
   HX - HEAT INDEX
  VSB - VISIBILITY
$$



USA.gov is the U.S. government's official web portal to all federal, state and local government web resources and services.